TIME,DELAY(SENSOR),PRES,OXYGEN,RAWTEMP,T(OPTODE),TCPHASE,FLUOR,BETA(BETA700),BETA(BETA412),BETA(BETA440),CDOM,C(CSC),ED(ED411.90),ED(ED443.80),ED(ED489.40),ED(ED554.70),LU(LU412.20),LU(LU443.80),LU(LU489.40),LU(LU555.00),COMP,TILTX,TILTY,CHECK
1369777165,5805,834.2800292968750000,155.9900970458984400,397.6311950683594000,10.6748895645141600,39.2456703186035160,52,105,96,79,79,10339,2146963145,2147518546,2147283977,2147489097,2147085302,2146936402,2147696548,2147124397,1511,-1,8,52555
1369780761,5809,968.7700195312500000,157.2382965087890600,491.5010986328125000,7.7929258346557620,40.7047805786132800,53,130,103,84,80,10309,2146962185,2147515099,2147293997,2147511378,2147087488,2146928246,2147716461,2147123373,499,-1,8,45595
1369784361,5807,999.0200195312500000,180.7888946533203000,491.1571044921875000,7.8035778999328610,38.9906082153320300,52,110,96,79,80,10297,2146961472,2147520612,2147294793,2147508635,2147083702,2146924397,2147714404,2147121910,134,-1,8,19941
1369787961,5806,996.5200195312500000,175.9436950683593800,490.8565979003906000,7.8128809928894040,39.3204116821289060,52,111,97,79,80,10316,2146963236,2147517814,2147293750,2147510875,2147086226,2146918016,2147716425,2147123392,3376,-1,8,33926
1369791561,5806,998.5499877929688000,176.1004028320312500,490.8706970214844000,7.8124480247497560,39.3095283508300800,52,107,98,82,80,10314,2146962002,2147516050,2147295003,2147508608,2147086555,2146924306,2147713956,2147120109,318,-1,8,42998
1369795161,5807,1000.6400146484375000,177.7597045898437500,490.8297119140625000,7.8137168884277340,39.1933898925781250,52,106,98,83,79,10318,2146959762,2147514011,2147294226,2147506157,2147085238,2146928338,2147714706,2147119277,3580,-1,8,25884
1369798761,5806,1006.5300292968750000,180.2039031982422000,490.7589111328125000,7.8159089088439940,39.0245895385742200,52,108,96,80,81,10313,2146963949,2147517988,2147296384,2147509732,2147086354,2146923840,2147712905,2147122093,349,-1,8,19182
1369802361,5809,1006.5499877929688000,182.3704986572265600,490.9278869628906000,7.8106741905212400,38.8790817260742200,52,107,97,79,79,10302,2146967085,2147511661,2147293869,2147508041,2147085897,2146930304,2147715821,2147122834,813,-1,8,40559
1369805961,5806,1006.0499877929688000,181.3471984863281200,490.9143066406250000,7.8110980987548830,38.9489402770996100,53,107,96,81,81,10312,2146962578,2147516827,2147294665,2147509595,2147087012,2146925577,2147713499,2147122669,231,0,8,5545
1369809561,5807,1002.8200073242188000,172.6773986816406200,491.2131958007812500,7.8018398284912110,39.5567893981933600,51,105,96,80,79,10311,2146960338,2147521334,2147292580,2147509558,2147084406,2146927149,2147716096,2147121078,3242,-1,8,13059
1369813161,5805,1006.7000122070312000,173.4884033203125000,491.4778137207031000,7.7936477661132810,39.5032310485839840,53,106,101,80,80,10307,2146964150,2147516534,2147294217,2147506688,2147087881,2146926921,2147713170,2147121737,3010,-1,8,18231
1369816761,5805,1004.8099975585938000,181.9091949462890600,491.7553100585937500,7.7850508689880370,38.9252204895019500,52,104,96,79,80,10303,2146963858,2147519524,2147293632,2147511314,2147088548,2146917842,2147709997,2147120640,1125,-1,8,28141
1369820361,5803,1007.1799926757812000,188.8796997070312500,492.2553100585937500,7.7695670127868650,38.4705314636230500,52,106,98,78,79,10302,2146963072,2147521728,2147296091,2147507282,2147085037,2146918784,2147712722,2147121536,1447,-1,8,41623
1369823961,5804,1006.6099853515625000,188.7380981445312500,492.4516906738281000,7.7634830474853520,38.4825706481933600,54,105,97,79,79,10298,2146963510,2147520914,2147295113,2147507337,2147081609,2146926189,2147718518,2147122532,1539,-1,8,44292
1369827561,5807,1003.7100219726562000,188.9868011474609400,493.3508911132812500,7.7356281280517580,38.4818115234375000,52,103,97,80,81,10299,2146964397,2147516068,2147293312,2147508315,2147083876,2146919277,2147714130,2147121216,1866,-1,8,53055
1369831161,5806,1004.9899902343750000,188.9367065429687500,493.1931152343750000,7.7405190467834470,38.4825706481933600,53,105,96,80,79,10295,2146961088,2147519542,2147294253,2147509174,2147086454,2146927533,2147714450,2147118107,2009,-1,8,31875
1369834761,5802,1005.9600219726562000,189.5532989501953000,493.3259887695312500,7.7364001274108890,38.4452514648437500,52,109,96,79,80,10292,2146964882,2147517348,2147295350,2147507876,2147084406,2146926052,2147717193,2147120539,2062,-1,8,56255
1369838361,5807,1010.4899902343750000,189.9925994873047000,492.8428955078125000,7.7513680458068850,38.4077186584472660,51,107,97,79,81,10293,2146964617,2147519341,2147296868,2147510491,2147086281,2146929883,2147715766,2147122669,2286,-1,8,36422
1369841961,5806,1005.7800292968750000,190.6338043212890600,493.1812133789062500,7.7408881187438965,38.3726692199707000,51,104,97,81,80,10294,2146963090,2147516571,2147295716,2147507986,2147086985,2146926080,2147714834,2147120813,2299,-1,8,27333
1369845561,5805,1006.9299926757812000,190.5547027587890600,493.5288085937500000,7.7301168441772460,38.3842315673828100,52,106,98,78,79,10288,2146959360,2147522486,2147297078,2147509513,2147084781,2146926784,2147714377,2147122962,2255,-1,8,16288
1369849161,5805,998.4099731445312000,183.5348968505859400,495.9525146484375000,7.6550087928771970,38.8884391784668000,52,106,98,79,81,10289,2146961078,2147517833,2147294217,2147512630,2147087049,2146927286,2147713280,2147120466,58,-1,8,1113
1369852761,5807,1002.9699707031250000,183.1356964111328000,496.3998107910156000,7.6411428451538090,38.9234809875488300,52,107,97,80,80,10288,2146962660,2147518912,2147293056,2147507574,2147086829,2146927122,2147715090,2147120777,427,-1,8,28566
1369856361,5807,1002.8800048828125000,170.7902984619140600,496.7196044921875000,7.6312279701232910,39.7870712280273440,52,123,98,78,79,10290,2146963218,2147519222,2147298633,2147509888,2147086290,2146922441,2147711360,2147120493,402,0,8,49831
1369859961,5807,1001.1099853515625000,181.4385986328125000,497.2036132812500000,7.6162228584289550,39.0516586303710940,52,104,97,80,80,10283,2146962770,2147518372,2147297846,2147507264,2147084434,2146927058,2147716882,2147123794,233,-1,8,60656
1369863561,5804,1002.4000244140625000,182.8580017089843800,496.9671020507812500,7.6235570907592770,38.9520187377929700,53,104,96,78,80,10285,2146963730,2147518509,2147297398,2147509312,2147083126,2146922267,2147718262,2147123382,593,-1,8,10502
1369867161,5801,1005.5200195312500000,191.1640014648437500,495.6806945800781000,7.6634340286254880,38.3821296691894500,51,103,96,79,81,10285,2146962578,2147519734,2147296566,2147507785,2147085458,2146922249,2147712566,2147121014,3041,-1,8,61982
1369870761,5807,1003.0000000000000000,180.2897033691406200,497.0682067871094000,7.6204209327697750,39.1269493103027340,52,104,97,79,81,10284,2146962194,2147518875,2147297060,2147511862,2147085641,2146926701,2147716873,2147122066,415,-1,8,41604
1369874361,5809,1002.0200195312500000,186.0404052734375000,497.6033020019531000,7.6038298606872560,38.7502288818359400,52,105,95,80,80,10282,2146962688,2147516617,2147294628,2147508608,2147085860,2146921133,2147714989,2147123483,2723,-1,8,46833
1369877961,5804,1002.4799804687500000,193.8316040039062500,497.7731933593750000,7.5985598564147950,38.2469596862793000,52,108,97,77,80,10281,2146961398,2147518217,2147296612,2147508306,2147086848,2146922121,2147714276,2147122304,2965,-1,8,8910
1369881561,5806,1008.3699951171875000,191.2805938720703000,496.8225097656250000,7.6280379295349120,38.3936805725097660,52,103,97,80,80,10276,2146962788,2147520064,2147297270,2147507748,2147086866,2146920905,2147711753,2147121746,373,-1,8,10777
1369885161,5804,1004.0399780273438000,189.7781982421875000,497.2396850585937500,7.6151051521301270,38.4984283447265600,52,103,97,80,80,10276,2146961618,2147520585,2147294930,2147512292,2147085705,2146925659,2147711606,2147122432,3293,-1,8,55164
1369888761,5804,1004.4600219726562000,191.2108001708984400,497.1321105957031000,7.6184401512146000,38.4038314819335940,52,104,96,78,80,10277,2146962432,2147519725,2147294454,2147508937,2147084964,2146924388,2147710473,2147123008,3238,-1,8,8493
1369892361,5806,1004.0999755859375000,186.3829956054687500,496.8493041992187500,7.6272068023681640,38.7143783569335940,53,226,96,81,79,10271,2146961499,2147520054,2147295378,2147511789,2147083968,2146920182,2147715501,2147121865,3203,-1,8,10480
1369895961,5807,999.9099731445312000,193.5590057373047000,498.9613952636719000,7.5617117881774900,38.2849311828613300,52,104,96,80,79,10273,2146958665,2147521572,2147294080,2147510784,2147083574,2146921526,2147716708,2147121161,156,-1,8,24373
1369899561,5808,1002.8599853515625000,190.4575958251953000,498.0795898437500000,7.5890607833862305,38.4684791564941400,52,105,97,80,80,10271,2146962870,2147515428,2147295771,2147509924,2147087213,2146927707,2147714240,2147117193,373,-1,8,22797
1369903161,5807,1004.1199951171875000,192.1598052978515600,498.2701110839844000,7.5831527709960940,38.3626403808593750,53,106,96,79,79,10269,2146957796,2147518528,2147296786,2147509732,2147085686,2146920411,2147713581,2147121673,312,-1,8,54222
1369906761,5807,1005.4899902343750000,193.3616943359375000,498.2336120605469000,7.5842838287353520,38.2849998474121100,53,104,98,78,79,10248,2146960621,2147513773,2147295414,2147509504,2147088292,2146923766,2147714779,2147122852,399,-1,8,6708
1369910361,5804,998.7600097656250000,191.3643035888672000,499.4960021972656000,7.5451297760009770,38.4352607727050800,52,104,96,78,80,10243,2146964425,2147521792,2147297444,2147511296,2147083428,2146920466,2147713316,2147125632,1217,-1,8,40461
1369913961,5802,1000.4600219726562000,196.6732025146484400,500.4489135742187500,7.5155668258666990,38.1135902404785160,52,107,100,78,79,10214,2146959853,2147518820,2147296667,2147509348,2147084562,2146922258,2147716361,2147120768,2327,-1,8,46832
1369917561,5804,1000.4400024414062000,195.7355041503906200,501.0141906738281000,7.4980258941650390,38.1832695007324200,53,105,96,79,80,10213,2146964818,2147518482,2147296941,2147513115,2147082742,2146922450,2147713188,2147122322,2547,-1,8,9477
1369921161,5804,1004.0300292968750000,194.9604949951172000,499.5953063964844000,7.5420479774475100,38.2064895629882800,52,115,96,79,80,10217,2146961755,2147518500,2147296603,2147511972,2147086555,2146920393,2147713627,2147120740,2156,-1,8,8812
1369921855,5805,1003.7299804687500000,195.0339965820312500,499.6683959960937500,7.5397820472717285,38.2037010192871100,53,105,96,80,80,10228,2146964315,2147518692,2147297353,2147510363,2147085266,2146921014,2147715145,2147121408,2134,-1,8,36242
